Location: Dillon
(41.1766°N, 107.0923°W)
Time: 08:08:30
(UTC+00:00)

QB50P2 - Pass Details

Date: 27 June 2022
Orbit: 590 x 605 km, 97.9° (Epoch: 09 August)

Event Time Altitude Azimuth Distance (km) Brightness Sun altitude
Rises 07:28:12 0° 31° (NNE) 2,854 ? -25.4°
Reaches altitude 10° 07:31:04 10° 52° (NE) 1,949 ? -25.3°
Enters shadow 07:33:44 17° 91° (E) 1,551 ? -25.3°
